Weather Service Report


998 
ASUS44 KBMX 171910
RWRAL 
             
ALABAMA REGIONAL WEATHER ROUNDUP
NATIONAL WEATHER SERVICE BIRMINGHAM AL
100 PM CST TUE JAN 17 2017

NOTE: "FAIR" INDICATES FEW OR NO CLOUDS BELOW 12,000 FEET
WITH NO SIGNIFICANT WEATHER AND/OR OBSTRUCTIONS TO VISIBILITY.

THE REMARK "TC" DENOTES TEMPERATURE IN DEGREES CELSIUS.

ALZ001>011-014-016>018-020-172000-
NORTH ALABAMA
  
CITY           SKY/WX    TMP DP  RH WIND       PRES   REMARKS
MUSCLE SHOALS  CLOUDY    64  61  90 W7        30.09F                  
HUNTSVILLE     CLOUDY    71  61  70 SW15G23   30.07F                  
DECATUR        LGT RAIN  68  62  81 SW12      30.08F                  
HALEYVILLE     CLOUDY    68  60  75 SW12      30.11F                  
GADSDEN        PTSUNNY   72  61  68 SW9       30.11F                  
$$
 
ALZ012-013-022-023-030>036-040>044-172000-
WEST CENTRAL ALABAMA
  
CITY           SKY/WX    TMP DP  RH WIND       PRES   REMARKS
TUSCALOOSA     CLOUDY    77  61  57 S12       30.10F                  
$$
 
ALZ015-024>027-033>036-040>044-172000-
CENTRAL ALABAMA
  
CITY           SKY/WX    TMP DP  RH WIND       PRES   REMARKS
BIRMINGHAM     PTSUNNY   74  59  59 SW20G25   30.13F                  
MONTGOMERY     PTSUNNY   75  60  59 S8        30.15F                  
SHELBY CO ARPT CLOUDY    74  63  68 VRB7      30.12F                  
MAXWELL AFB    CLOUDY    75  63  64 S10       30.14F                  
GREENVILLE     NOT AVBL                                               
$$
 
ALZ019-021-028-029-037-038-045>048-172000-
EAST CENTRAL ALABAMA
  
CITY           SKY/WX    TMP DP  RH WIND       PRES   REMARKS
ANNISTON       CLOUDY    72  60  66 W17G23    30.14F                  
ALEXANDER CITY PTSUNNY   75  66  73 SW9       30.16F                  
AUBURN         CLOUDY    75  59  57 SW16G23   30.17F                  
$$
 
ALZ051>064-172000-
SOUTHWEST ALABAMA
  
CITY           SKY/WX    TMP DP  RH WIND       PRES   REMARKS
MOBILE         CLOUDY    77  64  64 S17       30.15F                  
BROOKLEY FIELD PTSUNNY   75  68  78 SE10      30.16F                  
EVERGREEN      PTSUNNY   76  62  62 S9        30.16F                  
$$

ALZ049-050-065>069-172000-
SOUTHEAST ALABAMA
  
CITY           SKY/WX    TMP DP  RH WIND       PRES   REMARKS
DOTHAN         PTSUNNY   75  61  61 SW12      30.21F                  
OZARK          MOSUNNY   74  61  63 S8        30.17F                  
TROY           MOSUNNY   75  61  61 SW12      30.16F                  
EUFAULA        PTSUNNY   78  57  48 S9G20     30.15F                  
$$
  

Return to Home page


Western Regional Climate Center, wrcc@dri.edu